M I D A S
Marine Information and Data Acquisition System
Tripno 724 of the Zeeleeuw from 2004-05-27 06:15:34 to 2004-05-27 13:42:19
Back to CruiseResearch ActivitiesStationsMapUnderway DataData graphs

EquipmentUnitsComments
TimeDGPSUTC
LatitudeDGPSDM.mWGS84
LongitudeDGPSDM.mWGS84
SpeedMeteo Stationm/sRelative wind speed
DirectionMeteo StationdegRelative wind direction
TemperatureMeteo Stationdeg CelciusAir temperature
PressureMeteo StationPaAtmospheric pressure
HumidityMeteo Station%Relative humidity
Missing or incorrect values are displayed as -999
Metereological data collected by the RV Zeeleeuw from 2004-05-27 06:15:34 to 2004-05-27 13:42:19
Time Latitude Longitude Speed Direction Temperature Pressure Humidity
2004-05-27 06:16 51°13.598 2°56.095 2.6 350 11.7 102310 63
2004-05-27 06:17 51°13.598 2°56.095 2.7 354 11.8 102310 63
2004-05-27 06:18 51°13.597 2°56.095 1.8 322 11.9 102310 62
2004-05-27 06:19 51°13.597 2°56.096 3 348 11.8 102310 62
2004-05-27 06:20 51°13.597 2°56.091 2.1 355 11.8 102310 62
2004-05-27 06:21 51°13.622 2°55.98 1.3 193 11.8 102320 63
2004-05-27 06:22 51°13.671 2°55.838 1.9 260 11.7 102320 62
2004-05-27 06:23 51°13.692 2°55.736 1.9 64 11.7 102320 63
2004-05-27 06:24 51°13.703 2°55.732 3.5 70 11.6 102310 63
2004-05-27 06:25 51°13.734 2°55.754 2.7 104 11.4 102310 65
2004-05-27 06:26 51°13.719 2°55.761 2.2 130 11.3 102320 65
2004-05-27 06:27 51°13.791 2°55.67 3.7 54 11.3 102320 64
2004-05-27 06:28 51°13.91 2°55.547 2.8 57 11.2 102320 63
2004-05-27 06:29 51°14.022 2°55.493 3.4 74 11.1 102330 65
2004-05-27 06:30 51°14.144 2°55.417 5.2 34 11 102330 64
2004-05-27 06:31 51°14.296 2°55.201 6.2 22 10.9 102330 65
2004-05-27 06:32 51°14.449 2°54.945 6.9 47 10.9 102330 66
2004-05-27 06:33 51°14.631 2°54.739 5.9 50 10.9 102320 67
2004-05-27 06:34 51°14.811 2°54.528 6.6 42 10.7 102330 65
2004-05-27 06:35 51°14.994 2°54.32 6 54 10.7 102330 68
2004-05-27 06:36 51°15.173 2°54.102 6.2 47 10.7 102330 69
2004-05-27 06:37 51°15.371 2°53.922 6.3 48 10.7 102330 66
2004-05-27 06:38 51°15.58 2°53.769 6.9 45 10.7 102320 67
2004-05-27 06:39 51°15.788 2°53.612 6.8 55 10.7 102320 68
2004-05-27 06:40 51°15.997 2°53.454 7.3 53 10.7 102310 66
2004-05-27 06:41 51°16.21 2°53.303 8.9 43 10.7 102320 68
2004-05-27 06:42 51°16.438 2°53.226 8.3 45 10.7 102310 68
2004-05-27 06:43 51°16.669 2°53.157 8.5 51 10.7 102310 67
2004-05-27 06:44 51°16.893 2°53.11 8 53 10.7 102320 68
2004-05-27 06:45 51°17.138 2°53.092 9.5 28 10.7 102320 69
2004-05-27 06:46 51°17.362 2°53.242 11.5 26 10.8 102320 68
2004-05-27 06:47 51°17.584 2°53.411 10.4 26 10.8 102320 68
2004-05-27 06:48 51°17.806 2°53.576 9.6 24 10.9 102320 67
2004-05-27 06:49 51°18.016 2°53.745 9.8 27 10.9 102320 68
2004-05-27 06:50 51°18.228 2°53.967 11 25 11 102310 68
2004-05-27 06:51 51°18.408 2°54.231 11 19 11 102330 67
2004-05-27 06:52 51°18.588 2°54.494 4.4 14 11 102330 65
2004-05-27 06:53 51°18.772 2°54.756 10.6 19 11 102330 66
2004-05-27 06:54 51°18.954 2°55.018 13.2 14 11 102310 66
2004-05-27 06:55 51°19.138 2°55.276 11.2 7 11.1 102320 64
2004-05-27 06:56 51°19.313 2°55.525 13.5 4 11.1 102320 63
2004-05-27 06:57 51°19.493 2°55.803 12.2 358 11.1 102320 63
2004-05-27 06:58 51°19.644 2°56.105 13.1 358 11.1 102310 63
2004-05-27 06:59 51°19.797 2°56.406 12.2 359 11.1 102330 62
2004-05-27 07:00 51°19.951 2°56.706 12.2 356 11.1 102310 62
2004-05-27 07:01 51°20.106 2°57.005 12.4 3 11.2 102310 63
2004-05-27 07:02 51°20.26 2°57.305 12.3 2 11.2 102320 62
2004-05-27 07:03 51°20.415 2°57.607 11.9 2 11.2 102330 62
2004-05-27 07:04 51°20.57 2°57.909 13 4 11.2 102330 63
2004-05-27 07:05 51°20.724 2°58.209 12.3 6 11.3 102320 63
2004-05-27 07:06 51°20.877 2°58.509 12.6 6 11.2 102320 61
2004-05-27 07:07 51°21.025 2°58.818 11.3 357 11.2 102340 63
2004-05-27 07:08 51°21.145 2°59.153 12.3 1 11.2 102320 62
2004-05-27 07:09 51°21.293 2°59.463 13.7 7 11.2 102330 62
2004-05-27 07:10 51°21.457 2°59.755 11.6 2 11.3 102340 62
2004-05-27 07:11 51°21.62 3°0.05 13.6 1 11.3 102340 61
2004-05-27 07:12 51°21.782 3°0.346 11.9 358 11.3 102330 62
2004-05-27 07:13 51°21.943 3°0.641 12.8 8 11.3 102320 63
2004-05-27 07:14 51°22.104 3°0.936 12 1 11.4 102340 62
2004-05-27 07:15 51°22.26 3°1.228 12.4 359 11.4 102340 61
2004-05-27 07:16 51°22.419 3°1.523 12.2 2 11.4 102330 62
2004-05-27 07:17 51°22.581 3°1.821 10.8 354 11.4 102340 61
2004-05-27 07:18 51°22.743 3°2.105 12.2 5 11.4 102340 62
2004-05-27 07:19 51°22.966 3°2.169 12.1 26 11.4 102340 62
2004-05-27 07:20 51°23.201 3°2.178 11.5 20 11.4 102350 61
2004-05-27 07:21 51°23.437 3°2.207 10.9 16 11.3 102350 61
2004-05-27 07:22 51°23.669 3°2.236 11.7 22 11.3 102350 62
2004-05-27 07:23 51°23.908 3°2.268 12.4 21 11.3 102350 63
2004-05-27 07:24 51°24.141 3°2.301 10.7 19 11.3 102350 62
2004-05-27 07:25 51°24.385 3°2.337 11.8 23 11.3 102360 62
2004-05-27 07:26 51°24.616 3°2.367 11.9 23 11.3 102350 63
2004-05-27 07:27 51°24.844 3°2.459 11.9 3 11.3 102350 62
2004-05-27 07:28 51°25.018 3°2.72 13 1 11.2 102350 62
2004-05-27 07:29 51°25.169 3°3.024 11.7 2 11.3 102360 62
2004-05-27 07:30 51°25.262 3°3.379 11.8 355 11.2 102360 61
2004-05-27 07:31 51°25.342 3°3.74 11.3 354 11.3 102360 63
2004-05-27 07:32 51°25.426 3°4.099 11.2 356 11.4 102350 63
2004-05-27 07:33 51°25.514 3°4.457 12.5 353 11.3 102360 62
2004-05-27 07:34 51°25.605 3°4.813 10.7 347 11.3 102360 62
2004-05-27 07:35 51°25.699 3°5.17 11.3 346 11.4 102360 62
2004-05-27 07:36 51°25.794 3°5.524 10.5 352 11.4 102360 63
2004-05-27 07:37 51°25.886 3°5.878 12.2 346 11.4 102360 64
2004-05-27 07:38 51°25.98 3°6.233 10.7 347 11.3 102350 63
2004-05-27 07:39 51°26.076 3°6.587 11 350 11.3 102360 65
2004-05-27 07:40 51°26.153 3°6.95 11.2 356 11.3 102360 63
2004-05-27 07:41 51°26.225 3°7.314 9.9 360 11.3 102360 62
2004-05-27 07:42 51°26.296 3°7.679 9.9 351 11.2 102380 63
2004-05-27 07:43 51°26.362 3°7.988 8.9 340 11.2 102370 64
2004-05-27 07:44 51°26.419 3°8.127 6.7 347 11.3 102380 65
2004-05-27 07:45 51°26.441 3°8.208 6.3 299 11.3 102390 63
2004-05-27 07:46 51°26.449 3°8.269 5.6 316 11.3 102390 64
2004-05-27 07:47 51°26.464 3°8.324 3.4 337 11.3 102390 63
2004-05-27 07:48 51°26.487 3°8.4 6 338 11.3 102390 64
2004-05-27 07:49 51°26.518 3°8.486 5.1 324 11.4 102390 64
2004-05-27 07:50 51°26.542 3°8.565 5.6 43 11.4 102380 63
2004-05-27 07:51 51°26.563 3°8.643 4.8 321 11.5 102380 64
2004-05-27 07:52 51°26.58 3°8.72 5 318 11.5 102380 64
2004-05-27 07:53 51°26.595 3°8.795 5.2 317 11.6 102390 64
2004-05-27 07:54 51°26.612 3°8.873 5.9 317 11.6 102390 65
2004-05-27 07:55 51°26.631 3°8.951 5.3 335 11.6 102380 65
2004-05-27 07:56 51°26.654 3°9.027 5.2 43 11.6 102390 63
2004-05-27 07:57 51°26.679 3°9.102 5.4 321 11.5 102390 63
2004-05-27 07:58 51°26.706 3°9.174 5.3 320 11.5 102380 62
2004-05-27 07:59 51°26.733 3°9.246 5.9 321 11.4 102390 64
2004-05-27 08:00 51°26.755 3°9.321 7.3 306 11.4 102390 64
2004-05-27 08:01 51°26.772 3°9.398 6.2 313 11.4 102390 66
2004-05-27 08:02 51°26.788 3°9.473 5.4 305 11.3 102400 64
2004-05-27 08:03 51°26.805 3°9.549 5.7 306 11.3 102390 65
2004-05-27 08:04 51°26.823 3°9.624 5.8 305 11.3 102390 66
2004-05-27 08:05 51°26.843 3°9.698 5.7 303 11.3 102400 67
2004-05-27 08:06 51°26.866 3°9.772 5.7 310 11.2 102400 65
2004-05-27 08:07 51°26.889 3°9.844 6.9 304 11.3 102400 66
2004-05-27 08:08 51°26.914 3°9.918 6.8 324 11.3 102400 66
2004-05-27 08:09 51°26.938 3°9.989 5.6 327 11.2 102400 65
2004-05-27 08:10 51°26.961 3°10.06 6.5 315 11.2 102400 67
2004-05-27 08:11 51°26.985 3°10.13 5.2 227 11.3 102400 67
2004-05-27 08:12 51°27.008 3°10.2 6 311 11.2 102410 66
2004-05-27 08:13 51°27.032 3°10.271 5.4 309 11.2 102410 67
2004-05-27 08:14 51°27.053 3°10.344 6.9 304 11.2 102410 66
2004-05-27 08:15 51°27.07 3°10.418 6 297 11.2 102410 67
2004-05-27 08:16 51°27.086 3°10.491 6.4 310 11.2 102410 69
2004-05-27 08:17 51°27.105 3°10.562 6.2 43 11.2 102420 68
2004-05-27 08:18 51°27.123 3°10.634 5.2 303 11.2 102410 66
2004-05-27 08:19 51°27.131 3°10.689 5.2 280 11.2 102420 67
2004-05-27 08:20 51°27.133 3°10.729 7.3 264 11.3 102420 68
2004-05-27 08:21 51°27.1 3°10.768 2.5 185 11.2 102420 67
2004-05-27 08:22 51°27.055 3°10.728 4.3 128 11.2 102430 66
2004-05-27 08:23 51°27.023 3°10.658 4.2 126 11.3 102440 66
2004-05-27 08:24 51°27.009 3°10.586 4.6 118 11.2 102430 66
2004-05-27 08:25 51°26.998 3°10.509 5.1 113 11.2 102430 68
2004-05-27 08:26 51°26.991 3°10.431 4.3 115 11.2 102420 68
2004-05-27 08:27 51°26.985 3°10.349 4.9 97 11.2 102420 68
2004-05-27 08:28 51°26.978 3°10.268 3.8 111 11.2 102420 68
2004-05-27 08:29 51°26.965 3°10.19 4 107 11.2 102410 68
2004-05-27 08:30 51°26.95 3°10.119 4.1 109 11.2 102420 67
2004-05-27 08:31 51°26.936 3°10.041 4.7 106 11.3 102420 69
2004-05-27 08:32 51°26.922 3°9.964 5 101 11.3 102430 68
2004-05-27 08:33 51°26.91 3°9.886 5.8 93 11.3 102430 68
2004-05-27 08:34 51°26.899 3°9.807 5.5 100 11.3 102440 67
2004-05-27 08:35 51°26.891 3°9.727 4.9 92 11.3 102440 67
2004-05-27 08:36 51°26.88 3°9.647 4.8 95 11.3 102440 67
2004-05-27 08:37 51°26.865 3°9.57 4.6 112 11.3 102440 67
2004-05-27 08:38 51°26.847 3°9.495 3.9 105 11.3 102440 70
2004-05-27 08:39 51°26.827 3°9.425 5.6 111 11.3 102450 70
2004-05-27 08:40 51°26.807 3°9.349 4 118 11.3 102440 67
2004-05-27 08:41 51°26.789 3°9.274 4.7 113 11.2 102440 67
2004-05-27 08:42 51°26.772 3°9.197 4.9 112 11.3 102440 69
2004-05-27 08:43 51°26.759 3°9.119 3.8 112 11.2 102440 67
2004-05-27 08:44 51°26.751 3°9.039 4.1 102 11.2 102440 67
2004-05-27 08:45 51°26.746 3°8.957 5.1 98 11.2 102450 69
2004-05-27 08:46 51°26.744 3°8.876 5 108 11.2 102440 70
2004-05-27 08:47 51°26.738 3°8.797 3.9 106 11.2 102440 69
2004-05-27 08:48 51°26.727 3°8.722 3.8 120 11.2 102440 70
2004-05-27 08:49 51°26.71 3°8.652 2 122 11.2 102440 69
2004-05-27 08:50 51°26.696 3°8.578 4.2 110 11.2 102430 68
2004-05-27 08:51 51°26.685 3°8.502 4.1 120 11.1 102430 68
2004-05-27 08:52 51°26.683 3°8.421 4.2 113 11.2 102430 69
2004-05-27 08:53 51°26.688 3°8.34 4.7 100 11.1 102430 68
2004-05-27 08:54 51°26.7 3°8.266 4.2 99 11 102430 68
2004-05-27 08:55 51°26.715 3°8.212 4.2 84 11 102440 67
2004-05-27 08:56 51°26.73 3°8.17 4.4 75 11 102430 67
2004-05-27 08:57 51°26.737 3°8.087 3.6 93 11 102440 69
2004-05-27 08:58 51°26.668 3°7.857 5.1 42 11 102430 69
2004-05-27 08:59 51°26.557 3°7.555 5.6 40 11 102430 70
2004-05-27 09:00 51°26.405 3°7.3 5.9 38 11 102440 70
2004-05-27 09:01 51°26.25 3°7.05 5.3 37 11 102430 69
2004-05-27 09:02 51°26.091 3°6.807 4 47 10.9 102440 67
2004-05-27 09:03 51°25.935 3°6.555 5.1 29 10.9 102440 70
2004-05-27 09:04 51°25.779 3°6.302 4.5 31 10.9 102440 67
2004-05-27 09:05 51°25.618 3°6.056 4.3 32 11 102440 68
2004-05-27 09:06 51°25.445 3°5.829 4.1 34 11 102440 67
2004-05-27 09:07 51°25.269 3°5.604 4.9 43 11 102440 68
2004-05-27 09:08 51°25.089 3°5.384 4.8 40 11 102440 68
2004-05-27 09:09 51°24.902 3°5.179 4.3 38 11 102440 70
2004-05-27 09:10 51°24.715 3°4.968 4.5 23 10.9 102450 67
2004-05-27 09:11 51°24.534 3°4.765 4 14 11 102440 68
2004-05-27 09:12 51°24.307 3°4.515 4 23 11 102450 68
2004-05-27 09:13 51°24.119 3°4.308 3.3 23 11 102440 67
2004-05-27 09:14 51°23.931 3°4.102 3.5 30 11.1 102440 69
2004-05-27 09:15 51°23.737 3°3.888 3.7 28 11.1 102440 67
2004-05-27 09:16 51°23.533 3°3.67 4.9 28 11 102440 68
2004-05-27 09:17 51°23.339 3°3.461 5.7 16 11.1 102440 68
2004-05-27 09:18 51°23.149 3°3.249 4.3 16 11 102440 65
2004-05-27 09:19 51°22.955 3°3.038 4 13 11.1 102440 67
2004-05-27 09:20 51°22.761 3°2.831 3.6 9 11.1 102450 66
2004-05-27 09:21 51°22.568 3°2.628 2.8 16 11 102440 66
2004-05-27 09:23 51°22.342 3°2.364 3.7 15 11 102450 67
2004-05-27 09:24 51°22.157 3°2.131 5.3 19 11.1 102440 69
2004-05-27 09:25 51°21.988 3°1.863 4.8 29 11.1 102440 66
2004-05-27 09:26 51°21.827 3°1.61 4.2 24 11 102450 66
2004-05-27 09:27 51°21.66 3°1.33 5.2 29 11 102450 66
2004-05-27 09:28 51°21.502 3°1.059 4.4 37 11 102450 66
2004-05-27 09:29 51°21.348 3°0.792 3.5 54 11 102450 67
2004-05-27 09:30 51°21.277 3°0.629 3.5 93 11 102450 66
2004-05-27 09:31 51°21.258 3°0.56 4 130 11 102450 66
2004-05-27 09:32 51°21.255 3°0.541 2.5 128 11 102460 67
2004-05-27 09:33 51°21.242 3°0.477 2.4 84 11 102450 66
2004-05-27 09:34 51°21.227 3°0.368 3 97 11 102450 65
2004-05-27 09:35 51°21.213 3°0.244 3.5 103 11 102460 66
2004-05-27 09:36 51°21.208 3°0.14 3.1 90 11 102460 66
2004-05-27 09:37 51°21.209 3°0.043 3.3 91 11 102460 65
2004-05-27 09:38 51°21.206 2°59.949 2.4 87 11 102460 65
2004-05-27 09:39 51°21.2 2°59.861 2.2 105 11 102460 66
2004-05-27 09:40 51°21.191 2°59.771 3.5 112 11 102460 66
2004-05-27 09:41 51°21.177 2°59.683 2.9 111 11 102460 66
2004-05-27 09:42 51°21.162 2°59.598 2.6 115 11 102460 66
2004-05-27 09:43 51°21.145 2°59.513 2.6 124 11 102470 66
2004-05-27 09:44 51°21.125 2°59.43 2.9 125 11 102460 65
2004-05-27 09:45 51°21.105 2°59.345 1.6 114 11 102460 65
2004-05-27 09:46 51°21.088 2°59.259 1.9   11 102470 65
2004-05-27 09:47 51°21.069 2°59.16 2 98 11.1 102460 66
2004-05-27 09:48 51°21.052 2°59.073 2.8 83 11.2 102460 67
2004-05-27 09:49 51°21.032 2°58.987 2.7 97 11.1 102460 66
2004-05-27 09:50 51°21.01 2°58.902 2.3 85 11.1 102460 66
2004-05-27 09:51 51°20.99 2°58.818 2.5 89 11.1 102460 65
2004-05-27 09:52 51°20.968 2°58.733 2 80 11.1 102460 66
2004-05-27 09:53 51°20.945 2°58.648 2.3 84 11 102460 66
2004-05-27 09:54 51°20.923 2°58.565 2.3 93 11.1 102460 67
2004-05-27 09:55 51°20.899 2°58.479 2.3 98 11.1 102460 66
2004-05-27 09:56 51°20.875 2°58.395 1.9 103 11.2 102460 66
2004-05-27 09:57 51°20.85 2°58.311 2.6 125 11.1 102470 66
2004-05-27 09:58 51°20.824 2°58.227 2.1 115 11.1 102470 65
2004-05-27 09:59 51°20.796 2°58.138 1.7 125 11.1 102470 65
2004-05-27 10:00 51°20.77 2°58.054 1 152 11.1 102460 65
2004-05-27 10:01 51°20.744 2°57.97 1.8 130 11.1 102460 65
2004-05-27 10:02 51°20.717 2°57.887 2.1 110 11.2 102460 65
2004-05-27 10:03 51°20.691 2°57.807 1.7 117 11.2 102450 65
2004-05-27 10:04 51°20.666 2°57.741 1.3 148 11.2 102460 65
2004-05-27 10:05 51°20.641 2°57.68 1.2 141 11.2 102460 64
2004-05-27 10:06 51°20.61 2°57.612 1.2 141 11.2 102460 64
2004-05-27 10:07 51°20.579 2°57.537 2.3 127 11.2 102470 66
2004-05-27 10:08 51°20.554 2°57.464 3.1 130 11.3 102470 66
2004-05-27 10:09 51°20.531 2°57.396 3.3 123 11.3 102470 66
2004-05-27 10:10 51°20.508 2°57.333 2.2 134 11.3 102480 65
2004-05-27 10:11 51°20.483 2°57.269 2.6 133 11.3 102480 66
2004-05-27 10:12 51°20.457 2°57.208 2.4 136 11.3 102470 66
2004-05-27 10:13 51°20.431 2°57.148 2.1 130 11.3 102480 66
2004-05-27 10:14 51°20.405 2°57.087 3.2 136 11.3 102480 67
2004-05-27 10:15 51°20.378 2°57.027 3.3 124 11.3 102480 67
2004-05-27 10:16 51°20.352 2°56.964 3.9 142 11.3 102480 68
2004-05-27 10:17 51°20.327 2°56.901 3.5 136 11.3 102480 65
2004-05-27 10:18 51°20.302 2°56.835 2.9 152 11.2 102480 67
2004-05-27 10:19 51°20.276 2°56.772 2.2 131 11.2 102480 65
2004-05-27 10:20 51°20.251 2°56.709 2.6 157 11.2 102480 67
2004-05-27 10:21 51°20.223 2°56.647 3.5 139 11.2 102480 67
2004-05-27 10:22 51°20.195 2°56.587 3.1 125 11.3 102480 67
2004-05-27 10:23 51°20.168 2°56.524 2.8 137 11.2 102480 67
2004-05-27 10:24 51°20.141 2°56.461 3.6 135 11.2 102480 66
2004-05-27 10:25 51°20.114 2°56.399 4.5 140 11.2 102480 67
2004-05-27 10:26 51°20.085 2°56.336 3.7 136 11.3 102490 67
2004-05-27 10:27 51°20.057 2°56.274 2.8 142 11.2 102490 66
2004-05-27 10:28 51°20.028 2°56.21 3.7 138 11.2 102490 69
2004-05-27 10:29 51°19.999 2°56.149 2.8 143 11.2 102490 66
2004-05-27 10:30 51°19.971 2°56.086 3.3 128 11.2 102490 66
2004-05-27 10:31 51°19.943 2°56.022 4.1 149 11.2 102490 67
2004-05-27 10:32 51°19.914 2°55.957 4 151 11.2 102480 67
2004-05-27 10:33 51°19.884 2°55.896 2.9 147 11.2 102480 66
2004-05-27 10:34 51°19.855 2°55.833 2.6 153 11.1 102480 67
2004-05-27 10:35 51°19.824 2°55.771 2.8 147 11.1 102490 67
2004-05-27 10:36 51°19.795 2°55.712 3.4 134 11.2 102480 67
2004-05-27 10:37 51°19.763 2°55.646 2.3 150 11.2 102480 66
2004-05-27 10:38 51°19.685 2°55.514 2.2 33 11.2 102480 66
2004-05-27 10:39 51°19.584 2°55.232 5.4 40 11.2 102480 66
2004-05-27 10:40 51°19.53 2°54.887 6.3 53 11.2 102470 67
2004-05-27 10:41 51°19.47 2°54.512 5.6 39 11.2 102470 67
2004-05-27 10:42 51°19.392 2°54.145 7 58 11.1 102460 68
2004-05-27 10:43 51°19.295 2°53.788 5.4 44 11.1 102470 67
2004-05-27 10:44 51°19.2 2°53.429 4.9 51 11.1 102480 66
2004-05-27 10:45 51°19.104 2°53.07 5.9 34 11.1 102470 67
2004-05-27 10:46 51°19.008 2°52.711 5.6 22 11.1 102470 68
2004-05-27 10:47 51°18.914 2°52.35 5.6 30 11.2 102480 66
2004-05-27 10:48 51°18.817 2°51.984 6.5 49 11.2 102480 65
2004-05-27 10:49 51°18.723 2°51.632 4.7 35 11.1 102480 65
2004-05-27 10:50 51°18.626 2°51.276 7.2 39 11.1 102470 66
2004-05-27 10:51 51°18.551 2°50.929 6.4 49 11.1 102470 66
2004-05-27 10:52 51°18.616 2°50.775 5.8 19 11.1 102470 66
2004-05-27 10:53 51°18.673 2°50.8 6.2 359 11.2 102480 67
2004-05-27 10:54 51°18.705 2°50.843 5.7 350 11.2 102490 66
2004-05-27 10:55 51°18.728 2°50.889 6 354 11.3 102480 66
2004-05-27 10:56 51°18.755 2°50.948 6.4 344 11.3 102480 66
2004-05-27 10:57 51°18.785 2°51.012 5.8 346 11.3 102480 65
2004-05-27 10:58 51°18.816 2°51.073 5.9 344 11.4 102490 65
2004-05-27 10:59 51°18.849 2°51.133 5.9 344 11.4 102480 66
2004-05-27 11:00 51°18.882 2°51.194 6.4 350 11.4 102490 66
2004-05-27 11:01 51°18.913 2°51.251 7 348 11.5 102480 66
2004-05-27 11:02 51°18.946 2°51.31 5.5 351 11.5 102470 66
2004-05-27 11:03 51°18.978 2°51.369 6.3 343 11.5 102480 66
2004-05-27 11:04 51°19.011 2°51.431 5.6 347 11.6 102480 66
2004-05-27 11:05 51°19.041 2°51.491 7 347 11.6 102480 64
2004-05-27 11:06 51°19.073 2°51.55 5.5 352 11.6 102480 64
2004-05-27 11:07 51°19.105 2°51.609 6 351 11.6 102470 65
2004-05-27 11:08 51°19.137 2°51.669 6 354 11.6 102470 65
2004-05-27 11:09 51°19.17 2°51.729 6.7 351 11.6 102470 64
2004-05-27 11:10 51°19.203 2°51.789 6.9 346 11.6 102470 64
2004-05-27 11:11 51°19.236 2°51.846 6.7 347 11.6 102470 64
2004-05-27 11:12 51°19.267 2°51.906 6.5 346 11.6 102470 65
2004-05-27 11:13 51°19.297 2°51.965 7 341 11.7 102480 65
2004-05-27 11:14 51°19.327 2°52.026 7 339 11.6 102470 66
2004-05-27 11:15 51°19.357 2°52.083 6.3 359 11.7 102470 66
2004-05-27 11:16 51°19.39 2°52.14 6.2 346 11.7 102480 66
2004-05-27 11:17 51°19.422 2°52.2 6.9 345 11.7 102480 67
2004-05-27 11:18 51°19.451 2°52.262 7.4 345 11.8 102480 66
2004-05-27 11:19 51°19.481 2°52.325 6.1 353 11.7 102480 66
2004-05-27 11:20 51°19.511 2°52.383 6.8 357 11.7 102480 69
2004-05-27 11:21 51°19.543 2°52.443 6.1 358 11.7 102480 67
2004-05-27 11:22 51°19.575 2°52.504 6.7 355 11.6 102480 66
2004-05-27 11:23 51°19.605 2°52.566 5.7 355 11.6 102490 66
2004-05-27 11:24 51°19.628 2°52.631 5.1 332 11.6 102480 65
2004-05-27 11:25 51°19.629 2°52.665 4.8 316 11.6 102490 65
2004-05-27 11:26 51°19.616 2°52.679 5.2 307 11.7 102500 66
2004-05-27 11:27 51°19.556 2°52.746 3.7 267 11.7 102490 66
2004-05-27 11:28 51°19.481 2°52.728 2.1 204 11.6 102500 66
2004-05-27 11:29 51°19.42 2°52.679 1.7 160 11.6 102500 67
2004-05-27 11:30 51°19.369 2°52.618 2.1 206 11.7 102490 66
2004-05-27 11:31 51°19.317 2°52.555 2.2 183 11.8 102500 67
2004-05-27 11:32 51°19.266 2°52.495 1.4 172 11.8 102500 65
2004-05-27 11:33 51°19.213 2°52.434 2.4 173 11.9 102500 66
2004-05-27 11:34 51°19.16 2°52.375 1.6 168 11.9 102500 65
2004-05-27 11:35 51°19.107 2°52.315 2.1 204 11.9 102500 66
2004-05-27 11:36 51°19.054 2°52.256 2.7 206 11.7 102500 64
2004-05-27 11:37 51°19 2°52.198 3 212 11.5 102500 65
2004-05-27 11:38 51°18.947 2°52.139 2 205 11.5 102500 67
2004-05-27 11:39 51°18.894 2°52.078 1.1 183 11.6 102500 70
2004-05-27 11:40 51°18.842 2°52.016 2.1 169 11.8 102500 68
2004-05-27 11:41 51°18.79 2°51.953 1.5 183 11.8 102500 66
2004-05-27 11:42 51°18.738 2°51.889 1.1 205 11.8 102500 65
2004-05-27 11:43 51°18.687 2°51.823 2 213 11.9 102500 66
2004-05-27 11:44 51°18.636 2°51.76 2.3 158 11.8 102500 65
2004-05-27 11:45 51°18.585 2°51.696 2.1 163 11.8 102500 66
2004-05-27 11:46 51°18.534 2°51.631 3.1 166 11.7 102500 65
2004-05-27 11:47 51°18.482 2°51.567 2.4 151 11.6 102500 65
2004-05-27 11:48 51°18.43 2°51.504 1.4 177 11.5 102500 66
2004-05-27 11:49 51°18.379 2°51.443 3 166 11.6 102500 67
2004-05-27 11:50 51°18.332 2°51.384 2.9 167 11.5 102500 66
2004-05-27 11:51 51°18.287 2°51.327 1.6 182 11.4 102500 66
2004-05-27 11:52 51°18.242 2°51.271 1.4 207 11.5 102500 67
2004-05-27 11:53 51°18.198 2°51.215 2.3 203 11.7 102500 68
2004-05-27 11:54 51°18.153 2°51.16 3 174 12 102500 68
2004-05-27 11:55 51°18.107 2°51.104 2.6 179 12.1 102500 66
2004-05-27 11:56 51°18.062 2°51.049 2.1 212 11.9 102500 67
2004-05-27 11:57 51°18.018 2°50.993 2.1 190 12 102490 66
2004-05-27 11:58 51°17.968 2°50.937 3.9 214 12.1 102500 65
2004-05-27 11:59 51°17.916 2°50.886 3.7 221 11.9 102490 65
2004-05-27 12:00 51°17.858 2°50.864 4.4 283 11.7 102500 64
2004-05-27 12:01 51°17.786 2°50.976 8.7 42 11.8 102480 66
2004-05-27 12:02 51°17.659 2°51.237 8.4 335 11.8 102480 64
2004-05-27 12:03 51°17.574 2°51.542 10.1 339 11.8 102470 65
2004-05-27 12:04 51°17.485 2°51.863 10.2 333 11.9 102470 66
2004-05-27 12:05 51°17.35 2°52.16 8.7 328 11.9 102470 64
2004-05-27 12:06 51°17.214 2°52.442 8.5 333 11.8 102480 63
2004-05-27 12:07 51°17.074 2°52.715 7.8 334 11.9 102480 64
2004-05-27 12:08 51°16.93 2°53.004 8.9 327 11.9 102470 64
2004-05-27 12:09 51°16.785 2°53.271 10.2 330 11.9 102480 62
2004-05-27 12:10 51°16.645 2°53.564 8.6 330 11.9 102480 64
2004-05-27 12:11 51°16.514 2°53.844 8.5 331 11.9 102470 63
2004-05-27 12:12 51°16.487 2°53.999 5.7 310 11.9 102470 62
2004-05-27 12:13 51°16.471 2°53.997 5.9 299 12 102480 65
2004-05-27 12:14 51°16.464 2°54.02 7.8 332 12 102470 66
2004-05-27 12:15 51°16.47 2°54.095 6.5 327 12 102480 64
2004-05-27 12:16 51°16.458 2°54.162 6.8 324 12 102480 64
2004-05-27 12:17 51°16.442 2°54.224 6.1 313 11.9 102480 62
2004-05-27 12:18 51°16.428 2°54.285 6.1 319 11.9 102480 63
2004-05-27 12:19 51°16.419 2°54.351 7.4 333 12 102480 65
2004-05-27 12:20 51°16.414 2°54.425 6.5 319 12 102470 63
2004-05-27 12:21 51°16.408 2°54.5 5.8 312 12 102480 63
2004-05-27 12:22 51°16.406 2°54.576 6 227 12 102480 64
2004-05-27 12:23 51°16.407 2°54.651 6.8 337 12 102480 65
2004-05-27 12:24 51°16.408 2°54.727 7.5 335 12.1 102480 64
2004-05-27 12:25 51°16.407 2°54.804 6.7 324 12.1 102480 63
2004-05-27 12:26 51°16.406 2°54.878 7.1 336 12.1 102480 63
2004-05-27 12:27 51°16.406 2°54.958 6.8 332 12 102480 62
2004-05-27 12:28 51°16.404 2°55.036 7.2 320 12 102480 62
2004-05-27 12:29 51°16.404 2°55.114 6.5 336 12 102470 63
2004-05-27 12:30 51°16.404 2°55.191 5.7 330 12 102470 62
2004-05-27 12:31 51°16.404 2°55.268 6.9 326 12 102480 63
2004-05-27 12:32 51°16.405 2°55.347 6.5 322 12 102470 63
2004-05-27 12:33 51°16.407 2°55.422 7.2 326 12 102470 62
2004-05-27 12:34 51°16.41 2°55.499 6.4 328 12 102480 61
2004-05-27 12:35 51°16.415 2°55.576 7.5 341 12 102480 62
2004-05-27 12:36 51°16.419 2°55.654 6.1 337 12 102480 60
2004-05-27 12:37 51°16.424 2°55.731 5.2 333 12 102480 60
2004-05-27 12:38 51°16.427 2°55.807 5.4 336 12.1 102480 62
2004-05-27 12:39 51°16.432 2°55.884 7.2 325 12.1 102480 63
2004-05-27 12:40 51°16.436 2°55.961 7.4 328 12.1 102480 61
2004-05-27 12:41 51°16.441 2°56.038 7 330 12.1 102480 62
2004-05-27 12:42 51°16.446 2°56.113 6.9 335 12.1 102480 61
2004-05-27 12:43 51°16.45 2°56.191 7.5 323 12.1 102480 61
2004-05-27 12:44 51°16.454 2°56.268 6.1 318 12.1 102480 61
2004-05-27 12:45 51°16.428 2°56.331 5.3 273 12.1 102480 62
2004-05-27 12:46 51°16.39 2°56.356 6 266 12.1 102490 64
2004-05-27 12:47 51°16.353 2°56.364 5.5 264 12 102490 62
2004-05-27 12:48 51°16.318 2°56.361 3.7 255 12 102480 63
2004-05-27 12:49 51°16.263 2°56.359 3.9 238 12 102490 62
2004-05-27 12:50 51°16.192 2°56.299 2 207 12 102490 60
2004-05-27 12:51 51°16.138 2°56.231 2.1 206 12.2 102490 62
2004-05-27 12:52 51°16.092 2°56.171 2.1 193 12.5 102490 63
2004-05-27 12:53 51°16.047 2°56.109 2.2 191 12.7 102490 60
2004-05-27 12:54 51°16.006 2°56.047 4.1 160 12.8 102490 61
2004-05-27 12:55 51°15.969 2°55.98 4.2 163 12.8 102490 63
2004-05-27 12:56 51°15.935 2°55.899 3.6 148 12.5 102490 63
2004-05-27 12:57 51°15.901 2°55.807 5.1 141 12.4 102490 62
2004-05-27 12:58 51°15.866 2°55.71 3.9 131 12.2 102490 61
2004-05-27 12:59 51°15.829 2°55.612 4.5 225 12.1 102490 61
2004-05-27 13:00 51°15.79 2°55.515 4 145 12 102490 61
2004-05-27 13:01 51°15.75 2°55.418 3.1 139 11.9 102490 62
2004-05-27 13:02 51°15.711 2°55.322 4.4 146 12 102490 66
2004-05-27 13:03 51°15.675 2°55.221 4.6 134 12 102490 63
2004-05-27 13:04 51°15.647 2°55.117 5.5 120 12 102490 64
2004-05-27 13:05 51°15.621 2°55.016 5.8 119 12 102490 63
2004-05-27 13:06 51°15.594 2°54.913 4.9 126 12 102490 65
2004-05-27 13:07 51°15.566 2°54.813 6 133 12 102490 63
2004-05-27 13:08 51°15.536 2°54.707 4.7 136 12 102490 63
2004-05-27 13:09 51°15.507 2°54.604 5.9 121 12 102490 64
2004-05-27 13:10 51°15.477 2°54.503 4.9 124 12 102490 65
2004-05-27 13:11 51°15.45 2°54.403 3.3 131 12 102490 67
2004-05-27 13:12 51°15.432 2°54.296 5.5 110 12 102490 64
2004-05-27 13:13 51°15.425 2°54.195 6.4 93 12 102500 65
2004-05-27 13:14 51°15.426 2°54.095 7.3 87 11.9 102490 62
2004-05-27 13:15 51°15.435 2°54.005 6.3 74 11.9 102490 62
2004-05-27 13:16 51°15.449 2°53.921 6.2 63 11.8 102480 61
2004-05-27 13:17 51°15.475 2°53.853 8 36 11.8 102480 63
2004-05-27 13:18 51°15.516 2°53.8 8.3 28 11.7 102480 61
2004-05-27 13:19 51°15.553 2°53.766 7.4 18 11.9 102480 62
2004-05-27 13:20 51°15.573 2°53.74 6.3 14 12 102480 63
2004-05-27 13:21 51°15.583 2°53.715 7.8 27 12.1 102480 59
2004-05-27 13:22 51°15.62 2°53.761 9 332 12.1 102480 61
2004-05-27 13:23 51°15.51 2°53.909 5.7 307 12.1 102480 62
2004-05-27 13:24 51°15.274 2°54.022 5.8 297 12.2 102490 63
2004-05-27 13:25 51°15.055 2°54.128 6.5 300 12.4 102490 64
2004-05-27 13:26 51°14.851 2°54.283 7.6 311 12.4 102500 63
2004-05-27 13:27 51°14.667 2°54.486 7.9 312 12.5 102480 62
2004-05-27 13:28 51°14.51 2°54.733 8.6 229 12.5 102480 63
2004-05-27 13:29 51°14.385 2°54.999 11.1 42 12.5 102470 62
2004-05-27 13:30 51°14.28 2°55.252 6.3 231 12.4 102490 62
2004-05-27 13:31 51°14.18 2°55.389 5.5 282 12.5 102490 62
2004-05-27 13:32 51°14.081 2°55.486 3.8 284 12.5 102490 60
2004-05-27 13:33 51°13.967 2°55.561 2.2 324 12.5 102490 60
2004-05-27 13:34 51°13.825 2°55.649 4.3 321 12.5 102480 61
2004-05-27 13:35 51°13.711 2°55.773 6.6 289 12.6 102490 60
2004-05-27 13:36 51°13.646 2°55.917 3.5 340 12.6 102490 60
2004-05-27 13:37 51°13.609 2°56.038 6 296 12.8 102480 60
2004-05-27 13:38 51°13.597 2°56.096 7 259 13 102510 57
2004-05-27 13:39 51°13.596 2°56.094 6.5 244 12.9 102490 58
2004-05-27 13:40 51°13.597 2°56.098 2.8 234 12.9 102490 59
2004-05-27 13:41 51°13.596 2°56.095 6 233 13 102490 57